{"data":{"norad_id":63773,"intl_designator":"2025-089X","name":"STARLINK-33769","alt_names":[],"object_type":"PAYLOAD","status":"ACTIVE","operator":null,"country":"US","launch_date":"2025-04-29","launch_site_code":"AFETR","launch_vehicle":null,"mission":null,"orbit_class":"UNKNOWN","rcs_meters":null,"size_class":null,"mass_kg":null,"dimensions":null,"purposes":["comms"],"wikipedia_slug":null,"has_3d_model":false,"image_url":null,"decayed_at":null,"tle_current":{"epoch":"2026-09-20T19:43:55.265088Z","epoch_age_seconds":122012,"freshness":"FRESH","line1":"1 63773U 25089X   26263.82216742  .00011932  00000+0  44228-3 0  9999","line2":"2 63773  43.0014  22.9576 0001512 274.5061  85.5618 15.27589547 78792","mean_motion":15.27589547,"eccentricity":0.0001512,"inclination_deg":43.0014,"raan_deg":22.9576,"arg_perigee_deg":274.5061,"mean_anomaly_deg":85.5618,"bstar":0.00044228,"rev_number":7879,"period_min":94.266159573295,"perigee_km":481.98310202066,"apogee_km":484.05791605139,"semimajor_km":6861.157509036,"source":"CELESTRAK","updated_at":"2026-09-21T09:00:35.097126Z"}}}